Weather History for Imperial, NE

Change the Weather History Date:

Saturday, January 11, 2014

  Actual Average Record
Temperature  
Mean Temperature 41 °F 28 °F  
Max Temperature 53 °F 41 °F 64 °F (2006)
Min Temperature 28 °F 15 °F -27 °F (1918)
Degree Days  
Heating Degree Days 24 37  
Month to date heating degree days 428 407  
Cooling Degree Days 0 0  
Month to date cooling degree days 0 0  
Year to date cooling degree days 0 0  
Moisture  
Dew Point 21 °F    
Average Humidity 46    
Maximum Humidity 63    
Minimum Humidity 28    
Precipitation  
Precipitation 0.00 in 0.01 in 0.30 in (1905)
Sea Level Pressure  
Sea Level Pressure 29.84 in    
Wind  
Wind Speed 13 mph (West)    
Max Wind Speed 21 mph    
Max Gust Speed 25 mph    
Visibility 10 miles    
Events      
T = Trace of Precipitation, MM = Missing Value Source: NWS Daily Summary

Daily Weather History Graph

Daily Weather History Graph

Search for Another Location

Airport:

Trip Planner

Search our weather history database for the weather conditions in past years. The results will help you decide how hot, cold, wet, or windy it might be!

Date:

Astronomy

Jan. 11, 2014 Rise Set
Actual Time 7:09 AM MST 4:40 PM MST
Civil Twilight 6:38 AM MST 5:10 PM MST
Nautical Twilight 6:05 AM MST 5:44 PM MST
Astronomical Twilight 5:32 AM MST 6:17 PM MST
Moon 1:25 PM MST (1/11) 3:15 AM MST (1/11)
Length of Visible Light 10h 31m
Length of Day
9h 30m
Waxing Gibbous, 83% of the Moon is Illuminated
Jan 11
Waxing Gibbous
Jan 15
Full
Jan 23
Last Quarter
Jan 30
New
Feb 6
First Quarter

Hourly Weather History & Observations

Time (MST) Temp. Windchill Dew Point Humidity Pressure Visibility Wind Dir Wind Speed Gust Speed Precip Events Conditions
12:53 AM 30.9 °F 22.8 °F 19.0 °F 61% 29.85 in 10.0 mi WNW 9.2 mph - N/A   Partly Cloudy
1:53 AM 33.1 °F 23.9 °F 19.9 °F 59% 29.85 in 10.0 mi WNW 12.7 mph - N/A   Partly Cloudy
2:53 AM 36.0 °F 26.7 °F 19.9 °F 52% 29.88 in 10.0 mi West 15.0 mph - N/A   Mostly Cloudy
3:53 AM 33.1 °F 23.4 °F 19.9 °F 59% 29.91 in 10.0 mi WNW 13.8 mph - N/A   Mostly Cloudy
4:53 AM 30.0 °F 20.0 °F 19.0 °F 64% 29.95 in 10.0 mi WNW 12.7 mph - N/A   Overcast
5:53 AM 28.9 °F 19.8 °F 18.0 °F 64% 29.96 in 10.0 mi West 10.4 mph - N/A   Clear
6:53 AM 30.9 °F 20.7 °F 19.0 °F 61% 29.99 in 10.0 mi West 13.8 mph - N/A   Mostly Cloudy
7:53 AM 34.0 °F 25.0 °F 19.0 °F 54% 29.98 in 10.0 mi NW 12.7 mph - N/A   Clear
8:53 AM 39.0 °F 32.3 °F 21.0 °F 49% 29.98 in 10.0 mi NW 10.4 mph - N/A   Clear
9:53 AM 46.9 °F - 19.9 °F 34% 29.97 in 10.0 mi NNW 16.1 mph - N/A   Clear
10:53 AM 48.9 °F - 19.0 °F 31% 29.95 in 10.0 mi WNW 9.2 mph - N/A   Partly Cloudy
11:53 AM 51.1 °F - 19.9 °F 29% 29.91 in 10.0 mi WNW 10.4 mph - N/A   Clear
12:53 PM 51.1 °F - 21.0 °F 31% 29.88 in 10.0 mi West 8.1 mph - N/A   Clear
1:53 PM 52.0 °F - 21.0 °F 30% 29.84 in 10.0 mi WSW 15.0 mph 23.0 mph N/A   Clear
2:53 PM 52.0 °F - 21.0 °F 30% 29.82 in 10.0 mi SW 17.3 mph 25.3 mph N/A   Clear
3:53 PM 50.0 °F - 21.0 °F 32% 29.81 in 10.0 mi SSW 12.7 mph 19.6 mph N/A   Clear
4:53 PM 46.9 °F - 21.0 °F 36% 29.80 in 10.0 mi SSW 15.0 mph - N/A   Clear
5:53 PM 42.1 °F 34.2 °F 21.0 °F 43% 29.79 in 10.0 mi SSW 16.1 mph - N/A   Clear
6:53 PM 41.0 °F 34.7 °F 21.0 °F 45% 29.77 in 10.0 mi SSW 10.4 mph - N/A   Clear
7:53 PM 39.0 °F 29.9 °F 21.9 °F 50% 29.73 in 10.0 mi SSW 17.3 mph - N/A   Clear
8:53 PM 37.9 °F 30.0 °F 21.9 °F 53% 29.70 in 10.0 mi SW 12.7 mph - N/A   Clear
9:53 PM 39.9 °F 33.4 °F 23.0 °F 51% 29.65 in 10.0 mi SW 10.4 mph - N/A   Clear
10:53 PM 39.9 °F 32.9 °F 23.0 °F 51% 29.61 in 10.0 mi SW 11.5 mph - N/A   Clear
11:53 PM 37.9 °F 31.5 °F 23.0 °F 55% 29.58 in 10.0 mi WSW 9.2 mph - N/A   Clear